User: anonymous   Login
Location: Chiroubles
(46.1812°N, 4.6660°E)
Time: 07:48:40
(UTC+00:00)
Language:

Cosmos 540 Rocket - Orbit

View from above orbital plane
View from above orbital plane
View from above satellite
View from above satellite

Ground track
Ground track

The orbit data is extracted from the following two-line orbital elements,

1  6324U 72104B   20299.84687948 +.00000013 +00000-0 +11648-4 0  9993
2  6324 074.0785 352.4746 0008983 184.3896 175.7184 14.43504645512294
Epoch (UTC): 25 October 2020 20:19:30
Eccentricity: 0.0008983
inclination: 74.0785°
perigee height: 740 km
apogee height: 753 km
right ascension of ascending node: 352.4746°
argument of perigee: 184.3896°
revolutions per day: 14.43504645
mean anomaly at epoch: 175.7184°
orbit number at epoch: 51229

The dashed part of the orbit path shows where the satellite is in the earth's shadow,  

DLR